Location: Nitra
(48.3167°N, 18.0833°E)
Time: 02:11:27
(UTC+01:00)

STARLINK-1707 - Visible Passes

Search period start: 24 January 2021 00:00
Search period end: 03 February 2021 00:00
Orbit: 429 x 430 km, 53.0° (Epoch: 23 January)

Date Brightness Start Highest point End Pass type
(mag) Time Alt. Az. Time Alt. Az. Time Alt. Az.
24 Jan 3.1 05:36:19 53° NW 05:37:02 79° NNE 05:40:28 10° ESE visible
25 Jan 4.5 04:55:34 39° E 04:55:34 39° E 04:57:58 10° ESE visible
25 Jan 4.3 06:28:56 13° W 06:31:30 30° SW 06:34:34 10° SSE visible
26 Jan 6.3 04:16:59 14° E 04:16:59 14° E 04:17:37 10° E visible
26 Jan 3.8 05:50:29 32° WSW 05:51:28 40° SW 05:54:44 10° SE visible
27 Jan 3.8 05:14:13 45° S 05:14:13 45° S 05:17:00 10° SE visible
28 Jan 5.5 04:40:09 20° SE 04:40:09 20° SE 04:41:24 10° SE visible
28 Jan 5.3 06:13:58 11° WSW 06:14:56 12° SW 06:16:27 10° SSW visible
29 Jan 5.3 05:42:15 15° SW 05:42:15 15° SW 05:43:49 10° S visible
30 Jan 5.8 05:12:47 11° S 05:12:47 11° S 05:13:06 10° S visible
